DL1VED Weather Reports


time (UTC)temp
F
wind
direction
speed
knots
gust
knots
rain 1hr
in
rain 24hr
in
rain mn
in
humidity
%
barometer
mb
20260504171409 61 257 1.7 5.2 0.00 0.00 0.00 68 1012.6
20260504081409 63 358 0.0 1.7 0.00 0.01 0.01 57 1013.6
20260504045909 49 60 0.0 0.0 0.00 0.01 0.01 80 1013.0
20260504044409 48 60 0.0 0.0 0.00 0.01 0.01 81 1013.0
20260504042909 48 60 0.0 0.0 0.00 0.01 0.01 80 1012.9
20260504041409 48 60 0.0 0.0 0.00 0.01 0.01 80 1012.8
20260504035909 48 60 0.0 0.0 0.00 0.01 0.01 80 1012.8
20260504034519 48 60 0.0 0.0 0.00 0.01 0.01 80 1012.9
20260504034409 48 60 0.0 0.0 0.00 0.01 0.01 80 1012.9
20260504032909 48 60 0.0 0.0 0.00 0.01 0.01 79 1012.9
20260504031410 49 60 0.0 0.0 0.00 0.01 0.01 79 1012.9
20260504025910 49 60 0.0 0.0 0.00 0.01 0.01 79 1013.1
20260504024410 49 60 0.0 0.0 0.00 0.01 0.01 78 1013.1
20260504022910 49 60 0.0 0.0 0.00 0.01 0.01 79 1013.0
20260504021410 50 60 0.0 0.0 0.00 0.01 0.01 78 1013.2
20260504015910 50 60 0.0 0.0 0.00 0.01 0.01 78 1013.0
20260504014410 50 60 0.0 0.0 0.00 0.01 0.01 79 1013.0
20260504012910 50 60 0.0 0.0 0.00 0.01 0.01 78 1013.1
20260504011410 50 60 0.0 0.0 0.00 0.01 0.01 79 1013.1
20260504005910 50 60 0.0 0.0 0.00 0.01 0.01 78 1012.9
20260504004410 51 60 0.0 0.0 0.00 0.01 0.01 78 1012.9
20260504002910 51 60 0.0 0.0 0.00 0.01 0.01 78 1012.9
20260504001410 51 60 0.0 0.0 0.00 0.01 0.01 78 1012.9
20260503235910 51 60 0.0 0.0 0.00 0.01 0.01 78 1013.0
20260503234410 51 60 0.0 0.0 0.00 0.01 0.01 78 1013.1
20260503232910 51 60 0.0 0.0 0.00 0.01 0.01 79 1013.0
20260503231410 51 60 0.0 0.0 0.00 0.01 0.01 78 1013.1
20260503225910 51 60 0.0 0.0 0.00 0.01 0.01 78 1013.0
20260503224410 52 60 0.0 0.0 0.00 0.01 0.01 78 1013.0
20260503222910 52 60 0.0 0.0 0.00 0.01 0.01 77 1013.1
20260503221410 52 60 0.0 0.0 0.00 0.01 0.01 77 1013.0
20260503215910 52 60 0.0 0.0 0.00 0.01 0.01 77 1013.0
20260503214410 53 60 0.0 0.0 0.00 0.01 0.01 77 1013.1
20260503212910 53 60 0.0 0.0 0.00 0.01 0.01 75 1013.1
20260503211410 53 60 0.0 0.0 0.00 0.01 0.01 75 1013.1
20260503205910 54 60 0.0 0.0 0.00 0.01 0.01 75 1013.1
20260503204410 54 60 0.0 0.0 0.00 0.01 0.01 75 1013.0
20260503202910 55 60 0.0 0.0 0.00 0.01 0.01 75 1013.1
20260503201410 55 60 0.0 0.0 0.00 0.01 0.01 73 1013.1
20260503195910 56 52 0.0 0.0 0.00 0.01 0.01 73 1013.1
20260503194410 56 49 0.0 0.0 0.00 0.01 0.01 72 1013.1
20260503192910 57 49 0.0 0.0 0.00 0.01 0.01 72 1013.2
20260503191410 58 212 0.0 0.0 0.00 0.01 0.01 69 1013.1
20260503185910 59 212 0.0 0.0 0.00 0.01 0.01 68 1013.0
20260503184410 60 212 0.0 0.9 0.00 0.01 0.01 66 1012.9
20260503182910 60 291 0.9 1.7 0.00 0.01 0.01 68 1012.7
20260503181410 60 268 0.0 0.9 0.00 0.01 0.01 68 1012.6
20260503175910 60 234 0.0 1.7 0.00 0.01 0.01 68 1012.5
20260503174410 60 286 0.0 3.5 0.00 0.01 0.01 68 1012.5
20260503172910 60 219 0.0 3.5 0.00 0.01 0.01 69 1012.6